Sioux Falls, SD

9:55 AM CST on February 20, 2018 (GMT -0600)
Foss

Weather History for KFSD - May, 2014

Change the Weather History Date:

Friday, May 30, 2014

  Actual Average Record
Temperature  
Mean Temperature 78 °F 62 °F  
Max Temperature 88 °F 74 °F 104 °F (1934)
Min Temperature 67 °F 51 °F 30 °F (1897)
Degree Days  
Heating Degree Days 0 4  
Month to date heating degree days 270 244  
Since 1 July heating degree days 8288 7651  
Cooling Degree Days 13 2  
Month to date cooling degree days 42 30  
Year to date cooling degree days 42 35  
Growing Degree Days 27 (Base 50)    
Moisture  
Dew Point 63 °F    
Average Humidity 65    
Maximum Humidity 81    
Minimum Humidity 48    
Precipitation  
Precipitation T in 0.13 in 1.95 in (1943)
Month to date precipitation 1.22 3.28  
Year to date precipitation 4.09 9.21  
Snow  
Snow 0.00 in 0.00 in - ()
Month to date snowfall 0.0 0.4  
Since 1 July snowfall 45.3 44.9  
Snow Depth 0.00 in    
Sea Level Pressure  
Sea Level Pressure 30.00 in    
Wind  
Wind Speed 11 mph (SSE)    
Max Wind Speed 26 mph    
Max Gust Speed 32 mph    
Visibility 10 miles    
Events Rain , Thunderstorm    
T = Trace of Precipitation, MM = Missing Value Source: NWS Daily Summary

Daily Weather History Graph

Daily Weather History Graph

Search for Another Location

Airport or City:

Trip Planner

Search our weather history database for the weather conditions in past years. The results will help you decide how hot, cold, wet, or windy it might be!

Date:

Astronomy

May. 30, 2014 Rise Set
Actual Time 5:49 AM CDT 8:59 PM CDT
Civil Twilight 5:14 AM CDT 9:34 PM CDT
Nautical Twilight 4:30 AM CDT 10:19 PM CDT
Astronomical Twilight 3:36 AM CDT 11:14 PM CDT
Moon 7:36 AM CDT (5/30) 10:35 PM CDT (5/30)
Length of Visible Light 16h 19m
Length of Day
15h 10m
Waxing Crescent, 4% of the Moon is Illuminated
May 30
Waxing Crescent
Jun 5
First Quarter
Jun 12
Full
Jun 19
Last Quarter
Jun 27
New

Hourly Weather History & Observations

Time (CDT) Temp. Heat Index Dew Point Humidity Pressure Visibility Wind Dir Wind Speed Gust Speed Precip Events Conditions
12:56 AM 75.0 °F - 59.0 °F 57% 29.99 in 10.0 mi SSE 11.5 mph - N/A   Partly Cloudy
1:56 AM 73.0 °F - 61.0 °F 66% 29.99 in 10.0 mi SSE 12.7 mph - N/A   Clear
2:56 AM 71.1 °F - 61.0 °F 70% 29.99 in 10.0 mi SSE 9.2 mph - N/A   Clear
3:56 AM 71.1 °F - 61.0 °F 70% 29.99 in 10.0 mi SSE 11.5 mph - N/A   Clear
4:56 AM 69.1 °F - 62.1 °F 78% 30.01 in 10.0 mi SSE 9.2 mph - N/A   Partly Cloudy
5:56 AM 68.0 °F - 62.1 °F 81% 30.03 in 10.0 mi SE 5.8 mph - N/A   Partly Cloudy
6:56 AM 70.0 °F - 63.0 °F 78% 30.04 in 10.0 mi SE 9.2 mph - N/A   Partly Cloudy
7:56 AM 72.0 °F - 64.0 °F 76% 30.05 in 10.0 mi SE 5.8 mph - N/A   Partly Cloudy
8:56 AM 75.0 °F - 66.0 °F 73% 30.06 in 9.0 mi South 5.8 mph - N/A   Partly Cloudy
9:56 AM 78.1 °F - 66.0 °F 66% 30.05 in 10.0 mi SE 4.6 mph - N/A   Scattered Clouds
10:56 AM 79.0 °F - 66.0 °F 64% 30.04 in 10.0 mi SSE 5.8 mph - N/A   Mostly Cloudy
11:56 AM 82.9 °F 85.0 °F 66.0 °F 56% 30.03 in 10.0 mi SSE 10.4 mph 26.5 mph N/A   Mostly Cloudy
12:56 PM 82.0 °F 83.4 °F 64.0 °F 54% 30.01 in 10.0 mi SSE 12.7 mph 17.3 mph N/A   Mostly Cloudy
1:56 PM 84.9 °F 85.9 °F 63.0 °F 48% 29.99 in 10.0 mi South 12.7 mph - N/A   Mostly Cloudy
2:56 PM 84.9 °F 85.4 °F 62.1 °F 46% 29.99 in 10.0 mi South 10.4 mph - N/A   Mostly Cloudy
3:50 PM 84.2 °F 85.0 °F 62.6 °F 48% 30.00 in 10.0 mi South 15.0 mph - N/A Thunderstorm Thunderstorm
3:56 PM 80.6 °F 81.8 °F 62.6 °F 54% 30.01 in 10.0 mi SSE 25.3 mph 31.1 mph N/A Rain , Thunderstorm Light Thunderstorms and Rain
4:45 PM 78.1 °F - 62.1 °F 58% 29.99 in 10.0 mi SSE 16.1 mph 25.3 mph 0.00 in   Overcast
4:56 PM 77.0 °F - 62.1 °F 60% 29.96 in 10.0 mi South 16.1 mph 23.0 mph 0.00 in   Overcast
5:56 PM 80.6 °F 81.8 °F 62.6 °F 54% 29.98 in 10.0 mi SSE 17.3 mph - N/A   Overcast
6:56 PM 82.0 °F 83.1 °F 63.0 °F 52% 29.96 in 10.0 mi South 13.8 mph 21.9 mph N/A   Mostly Cloudy
7:56 PM 81.0 °F 81.9 °F 62.1 °F 52% 29.98 in 10.0 mi SSE 12.7 mph - N/A   Mostly Cloudy
8:56 PM 79.0 °F - 62.1 °F 56% 29.97 in 10.0 mi SSE 12.7 mph - N/A   Mostly Cloudy
9:56 PM 78.1 °F - 63.0 °F 60% 29.98 in 10.0 mi SSE 12.7 mph - N/A   Overcast
10:56 PM 75.0 °F - 62.1 °F 64% 29.99 in 10.0 mi SSE 6.9 mph - N/A   Scattered Clouds
11:56 PM 75.9 °F - 62.1 °F 62% 29.99 in 10.0 mi South 16.1 mph - N/A   Scattered Clouds